FW5765 Weather Reports


Display with metric or nautical units.
time (UTC)temp
F
wind
direction
speed
MPH
gust
MPH
rain 1hr
in
rain 24hr
in
rain mn
in
humidity
%
barometer
mb
20260504150125 60 30 22.0 25.0 0.00 0.00 0.00 43 1006.8
20260504141125 61 243 5.0 11.0 0.00 0.00 0.00 42 1005.1
20260504140724 61 254 7.0 11.0 0.00 0.00 0.00 42 1005.1
20260504140239 61 240 5.0 10.0 0.00 0.00 0.00 43 1005.1
20260504130722 50 291 5.0 8.0 0.00 0.00 0.00 62 1005.4
20260504130243 48 253 5.0 9.0 0.00 0.00 0.00 63 1005.4
20260504120221 43 257 4.0 7.0 0.00 0.00 0.00 70 1005.4
20260504110519 43 273 3.0 9.0 0.00 0.00 0.00 75 1005.4
20260504100543 44 262 6.0 9.0 0.00 0.00 0.00 76 1005.8
20260504100117 44 246 3.0 10.0 0.00 0.00 0.00 76 1005.8
20260504081715 41 266 3.0 6.0 0.00 0.00 0.00 81 1006.4
20260504081216 41 275 4.0 7.0 0.00 0.00 0.00 81 1006.4
20260504080743 41 273 4.0 7.0 0.00 0.00 0.00 82 1006.4
20260504080341 41 285 4.0 7.0 0.00 0.00 0.00 82 1006.4
20260504070312 41 284 2.0 4.0 0.00 0.00 0.00 83 1006.8
20260504050340 46 246 3.0 8.0 0.00 0.00 0.00 79 1007.5
20260504045839 46 202 4.0 6.0 0.00 0.00 0.00 78 1007.5
20260504045412 45 201 2.0 6.0 0.00 0.00 0.00 80 1007.8
20260504045014 45 194 5.0 6.0 0.00 0.00 0.00 80 1007.8
20260504044515 45 161 5.0 5.0 0.00 0.00 0.00 81 1007.8
20260504044042 44 159 2.0 3.0 0.00 0.00 0.00 79 1007.8
20260504043641 44 159 2.0 3.0 0.00 0.00 0.00 76 1007.8
20260504043210 44 159 1.0 5.0 0.00 0.00 0.00 75 1007.8
20260504042710 44 159 4.0 5.0 0.00 0.00 0.00 76 1007.8
20260504042213 45 159 2.0 2.0 0.00 0.00 0.00 76 1007.8
20260504041736 45 159 1.0 2.0 0.00 0.00 0.00 77 1007.8
20260504041239 45 159 0.0 2.0 0.00 0.00 0.00 74 1008.1
20260504040839 45 159 1.0 2.0 0.00 0.00 0.00 74 1008.1
20260504040410 46 159 1.0 2.0 0.00 0.00 0.00 72 1008.1
20260504035913 46 159 0.0 3.0 0.00 0.00 0.00 72 1008.1
20260504035516 47 159 1.0 3.0 0.00 0.00 0.00 72 1008.1
20260504035037 47 159 2.0 4.0 0.00 0.00 0.00 72 1008.1
20260504034612 47 159 2.0 4.0 0.00 0.00 0.00 70 1008.1
20260504034136 48 159 1.0 2.0 0.00 0.00 0.00 70 1008.1
20260504033714 48 159 0.0 2.0 0.00 0.00 0.00 70 1008.1
20260504033311 49 159 2.0 2.0 0.00 0.00 0.00 71 1008.1
20260504032811 50 159 1.0 2.0 0.00 0.00 0.00 71 1008.1
20260504032311 50 159 0.0 2.0 0.00 0.00 0.00 71 1008.1
20260504031747 50 159 0.0 5.0 0.00 0.00 0.00 71 1008.1
20260504031242 50 159 4.0 5.0 0.00 0.00 0.00 72 1008.1
20260504030813 50 165 4.0 6.0 0.00 0.00 0.00 71 1008.1
20260504030316 50 165 0.0 6.0 0.00 0.00 0.00 69 1008.5
20260504025811 51 165 0.0 3.0 0.00 0.00 0.00 67 1008.1
20260504025341 52 166 3.0 4.0 0.00 0.00 0.00 66 1008.1
20260504024837 52 166 0.0 3.0 0.00 0.00 0.00 66 1008.5
20260504024339 53 166 0.0 3.0 0.00 0.00 0.00 65 1008.5
20260504023912 53 170 2.0 5.0 0.00 0.00 0.00 65 1008.1
20260504023514 53 170 1.0 5.0 0.00 0.00 0.00 63 1008.5
20260504023012 54 170 5.0 6.0 0.00 0.00 0.00 64 1008.1
20260504022515 54 26 1.0 10.0 0.00 0.00 0.00 64 1008.1
20260504022041 55 26 6.0 12.0 0.00 0.00 0.00 63 1008.1
20260504021614 55 12 8.0 12.0 0.00 0.00 0.00 61 1007.8
20260504021139 56 13 8.0 10.0 0.00 0.00 0.00 59 1007.8
20260504020711 56 15 3.0 8.0 0.00 0.00 0.00 57 1007.5
20260504020238 57 9 3.0 8.0 0.00 0.00 0.00 56 1007.5
20260504015818 57 33 6.0 9.0 0.00 0.00 0.00 56 1007.5
20260504015339 58 40 5.0 9.0 0.00 0.00 0.00 54 1007.5
20260504014916 59 32 6.0 9.0 0.00 0.00 0.00 53 1007.5
20260504014439 60 38 5.0 5.0 0.00 0.00 0.00 53 1007.8
20260504014016 60 346 1.0 3.0 0.00 0.00 0.00 51 1007.8
20260504013517 60 342 0.0 5.0 0.00 0.00 0.00 51 1007.8
20260504013018 60 338 0.0 6.0 0.00 0.00 0.00 51 1007.8
20260504012617 60 314 5.0 10.0 0.00 0.00 0.00 52 1008.1
20260504012137 59 11 3.0 10.0 0.00 0.00 0.00 53 1007.8
20260504011716 59 20 8.0 10.0 0.00 0.00 0.00 54 1007.8
20260504011215 59 5 6.0 11.0 0.00 0.00 0.00 55 1007.8
20260504010715 59 5 8.0 15.0 0.00 0.00 0.00 54 1007.8
20260504010236 59 19 8.0 15.0 0.00 0.00 0.00 55 1007.8
20260504005817 59 19 9.0 16.0 0.00 0.00 0.00 54 1008.1
20260504005342 59 19 8.0 16.0 0.00 0.00 0.00 54 1008.1
20260504004916 59 355 13.0 17.0 0.00 0.00 0.00 54 1008.1
20260504004439 59 355 11.0 19.0 0.00 0.00 0.00 53 1008.1
20260504004017 59 355 8.0 19.0 0.00 0.00 0.00 53 1008.1
20260504003540 59 5 13.0 20.0 0.00 0.00 0.00 52 1008.1
20260504003116 59 350 14.0 20.0 0.00 0.00 0.00 52 1008.1
20260504002637 60 5 10.0 20.0 0.00 0.00 0.00 51 1008.1
20260504002216 60 355 17.0 24.0 0.00 0.00 0.00 50 1007.8
20260504001715 61 360 12.0 24.0 0.00 0.00 0.00 49 1007.8
20260504001217 61 5 19.0 24.0 0.00 0.00 0.00 49 1007.5
20260504000741 61 5 13.0 24.0 0.00 0.00 0.00 49 1007.5
20260504000338 62 5 24.0 24.0 0.00 0.00 0.00 48 1007.8
20260503235843 62 355 16.0 25.0 0.00 0.00 0.00 48 1007.8
20260503235416 62 336 21.0 28.0 0.00 0.00 0.00 47 1007.8
20260503235014 62 337 19.0 28.0 0.00 0.00 0.00 47 1008.1
20260503234516 62 337 15.0 33.0 0.00 0.00 0.00 47 1008.1
20260503234114 61 334 16.0 35.0 0.00 0.00 0.00 45 1008.1
20260503233636 63 360 18.0 35.0 0.00 0.00 0.00 42 1008.5
20260503233214 66 360 17.0 31.0 0.00 0.00 0.00 35 1008.5
20260503232714 73 317 23.0 29.0 0.00 0.00 0.00 20 1008.1
20260503232216 75 253 5.0 12.0 0.00 0.00 0.00 20 1007.1
20260503231742 75 190 9.0 11.0 0.00 0.00 0.00 20 1007.1
20260503231238 75 214 1.0 14.0 0.00 0.00 0.00 20 1007.1
20260503230837 75 200 6.0 14.0 0.00 0.00 0.00 20 1007.1
20260503230413 74 170 8.0 14.0 0.00 0.00 0.00 21 1007.1
20260503225913 74 193 5.0 14.0 0.00 0.00 0.00 20 1007.1
20260503225513 74 236 3.0 9.0 0.00 0.00 0.00 20 1007.1
20260503225042 74 238 8.0 12.0 0.00 0.00 0.00 20 1007.1
20260503224614 74 222 3.0 16.0 0.00 0.00 0.00 20 1007.1
20260503224142 74 250 9.0 16.0 0.00 0.00 0.00 20 1007.1
20260503223713 75 210 5.0 12.0 0.00 0.00 0.00 21 1007.5
20260503223238 75 204 4.0 12.0 0.00 0.00 0.00 20 1007.5
20260503222812 75 211 5.0 13.0 0.00 0.00 0.00 21 1007.5
20260503222340 75 215 7.0 13.0 0.00 0.00 0.00 21 1007.5
20260503221912 75 233 8.0 10.0 0.00 0.00 0.00 21 1007.5
20260503221436 74 169 2.0 13.0 0.00 0.00 0.00 21 1007.5
20260503221013 74 150 9.0 13.0 0.00 0.00 0.00 22 1007.8
20260503220541 73 146 3.0 14.0 0.00 0.00 0.00 22 1007.8
20260503220111 74 120 3.0 12.0 0.00 0.00 0.00 22 1007.8
20260503215642 74 187 8.0 12.0 0.00 0.00 0.00 22 1007.8
20260503215214 74 240 10.0 13.0 0.00 0.00 0.00 23 1008.1
20260503214739 74 180 5.0 14.0 0.00 0.00 0.00 23 1008.1
20260503214310 74 317 3.0 17.0 0.00 0.00 0.00 23 1008.5
20260503213843 74 182 7.0 17.0 0.00 0.00 0.00 23 1008.5
20260503213412 74 200 9.0 12.0 0.00 0.00 0.00 24 1008.5
20260503212913 74 217 8.0 12.0 0.00 0.00 0.00 24 1008.5
20260503212515 73 197 10.0 13.0 0.00 0.00 0.00 25 1008.8
20260503212037 73 103 3.0 8.0 0.00 0.00 0.00 25 1008.8
20260503211611 73 101 3.0 8.0 0.00 0.00 0.00 24 1009.1
20260503211138 73 177 4.0 11.0 0.00 0.00 0.00 25 1009.1
20260503210712 72 89 3.0 12.0 0.00 0.00 0.00 25 1009.5
20260503210239 73 153 3.0 12.0 0.00 0.00 0.00 24 1009.5
20260503205812 73 232 4.0 14.0 0.00 0.00 0.00 25 1009.5
20260503205336 73 190 10.0 14.0 0.00 0.00 0.00 25 1009.8
20260503204913 72 153 3.0 9.0 0.00 0.00 0.00 26 1009.8
20260503204442 72 207 1.0 9.0 0.00 0.00 0.00 26 1009.8
20260503203914 72 160 5.0 11.0 0.00 0.00 0.00 26 1009.8
20260503203343 72 165 6.0 10.0 0.00 0.00 0.00 26 1010.2
20260503202842 72 226 3.0 17.0 0.00 0.00 0.00 26 1010.2
20260503202438 72 192 13.0 16.0 0.00 0.00 0.00 27 1010.2
20260503202016 72 196 5.0 11.0 0.00 0.00 0.00 27 1010.2
20260503201511 71 139 4.0 12.0 0.00 0.00 0.00 27 1010.2
20260503201039 71 140 7.0 11.0 0.00 0.00 0.00 27 1010.2
20260503200638 71 178 0.0 13.0 0.00 0.00 0.00 26 1010.5
20260503200213 72 239 8.0 13.0 0.00 0.00 0.00 26 1010.5
20260503195715 72 153 5.0 13.0 0.00 0.00 0.00 26 1010.5
20260503195313 72 130 8.0 8.0 0.00 0.00 0.00 27 1010.5
20260503194840 72 284 6.0 9.0 0.00 0.00 0.00 27 1010.8
20260503194343 71 178 4.0 9.0 0.00 0.00 0.00 27 1010.8
20260503193941 70 248 8.0 8.0 0.00 0.00 0.00 28 1010.8
20260503193515 70 219 6.0 10.0 0.00 0.00 0.00 28 1010.8
20260503193036 70 138 8.0 10.0 0.00 0.00 0.00 29 1011.2
20260503192613 69 36 3.0 11.0 0.00 0.00 0.00 29 1011.2
20260503192140 69 184 1.0 11.0 0.00 0.00 0.00 28 1011.2
20260503191712 70 137 9.0 10.0 0.00 0.00 0.00 28 1011.2
20260503191240 70 193 2.0 10.0 0.00 0.00 0.00 28 1011.2
20260503190811 70 223 1.0 12.0 0.00 0.00 0.00 28 1011.5
20260503190337 70 175 6.0 12.0 0.00 0.00 0.00 28 1011.5
20260503185911 70 208 7.0 10.0 0.00 0.00 0.00 29 1011.5
20260503185438 69 209 6.0 10.0 0.00 0.00 0.00 30 1011.5
20260503185012 69 128 7.0 11.0 0.00 0.00 0.00 30 1011.5
20260503184512 69 142 5.0 11.0 0.00 0.00 0.00 30 1011.5
20260503184015 69 118 3.0 7.0 0.00 0.00 0.00 30 1011.5
20260503183444 68 305 3.0 12.0 0.00 0.00 0.00 31 1011.9
20260503182940 68 243 2.0 12.0 0.00 0.00 0.00 30 1011.9
20260503182513 68 188 1.0 10.0 0.00 0.00 0.00 31 1011.9
20260503182011 67 180 9.0 10.0 0.00 0.00 0.00 31 1011.9
20260503181513 67 82 2.0 11.0 0.00 0.00 0.00 32 1012.2
20260503181042 68 105 9.0 11.0 0.00 0.00 0.00 31 1012.2
20260503180617 68 136 5.0 8.0 0.00 0.00 0.00 32 1012.5
20260503180138 67 119 5.0 7.0 0.00 0.00 0.00 33 1012.2
20260503175712 66 57 2.0 7.0 0.00 0.00 0.00 33 1012.2
20260503175240 67 47 4.0 6.0 0.00 0.00 0.00 33 1012.5
20260503174812 67 43 3.0 10.0 0.00 0.00 0.00 34 1012.5
20260503174344 67 150 3.0 10.0 0.00 0.00 0.00 32 1012.5
20260503173911 66 104 6.0 10.0 0.00 0.00 0.00 33 1012.5
20260503173438 66 134 5.0 10.0 0.00 0.00 0.00 33 1012.9
20260503173016 65 221 2.0 12.0 0.00 0.00 0.00 34 1012.5
20260503172542 65 146 3.0 12.0 0.00 0.00 0.00 34 1012.9
20260503172113 65 73 8.0 11.0 0.00 0.00 0.00 35 1012.9
20260503171641 65 38 5.0 9.0 0.00 0.00 0.00 36 1013.2
20260503171216 65 84 4.0 9.0 0.00 0.00 0.00 35 1013.2
20260503170742 65 79 2.0 11.0 0.00 0.00 0.00 36 1013.2
20260503170311 65 13 3.0 12.0 0.00 0.00 0.00 35 1013.5
20260503150912 58 97 6.0 9.0 0.00 0.00 0.00 45 1014.9
20260503150439 58 108 6.0 9.0 0.00 0.00 0.00 45 1014.9